Volver al catálogo

COSMOS 2571

ActivoMilitarLEO
NORAD 58172·PAYLOAD·🇷🇺 Russia

Lanzado Oct 27, 2023 desde Plesetsk Cosmodrome

Loading…

Próximos Pases (próximas 24 horas)

TLE

ActualizadoSource: Space-Track

Época: Sep 14, 2026, 04:44 UTC

1 58172U 23165C   26257.19737299 -.00000016  00000-0  42106-4 0  9994
2 58172  67.1482  70.8094 0019701 264.5825  95.3013 13.97339803146795

Sigue COSMOS 2571 en tiempo real con AllMySat

Download on the App Store